Date String (YYYY-MM-DD hh:mm:ss) UTC,Instrument flags,Ambient pressure (hPa),Sample flow (lpm),Bypass flow (lpm),Sample temperature (°C),Ambient temperature (°C),ASC tube jacket temperature (°C),LED temperature (°C),Box temperature (°C),Sample RH (%),Span deviation,Mass concentration (μg/m³),Mass concentration (μg/m³),Mass concentration (μg/m³)
DateTimeUTC,F1_M11,P_M11,Q1_M11,Q2_M11,T1_M11,T2_M11,T3_M11,T4_M11,T5_M11,U1_M11,ZSPAN_M11,X2_M11,X0_M11,X1_M11
2022-06-28 15:00:00,,0833.0,5.00,0.00,29.6,27.5,00.0,38.4,31.3,21.2,0000.0,0003.91,0011.91,0003.37
2022-06-28 15:01:00,,0833.0,5.00,0.00,29.6,27.4,00.0,38.3,31.2,21.4,0000.0,0003.90,0010.80,0003.38
2022-06-28 15:02:00,,0833.0,5.01,0.00,29.5,27.4,00.0,38.3,31.2,21.0,0000.0,0003.90,0010.20,0003.39
2022-06-28 15:03:00,,0833.0,5.00,0.00,29.5,27.5,00.0,38.3,31.2,20.8,0000.0,0003.91,0010.15,0003.39
2022-06-28 15:04:00,,0833.0,4.99,0.00,29.5,27.6,00.0,38.3,31.2,20.4,0000.0,0003.84,0010.08,0003.39
2022-06-28 15:05:00,,0832.9,5.00,0.00,29.5,27.8,00.0,38.3,31.3,20.7,0000.0,0003.84,0010.54,0003.40
2022-06-28 15:06:00,,0832.9,5.00,0.00,29.5,27.9,00.0,38.3,31.3,20.4,0000.0,0003.86,0010.35,0003.41
2022-06-28 15:07:00,,0833.0,4.99,0.00,29.5,28.1,00.0,38.3,31.3,19.9,0000.0,0003.90,0009.45,0003.41
2022-06-28 15:08:00,,0833.0,5.01,0.00,29.5,28.2,00.0,38.3,31.4,20.0,0000.0,0003.93,0009.33,0003.42
2022-06-28 15:09:00,,0833.0,5.00,0.00,29.5,28.3,00.0,38.3,31.4,20.8,0000.0,0003.96,0009.40,0003.42
2022-06-28 15:10:00,,0833.0,4.99,0.00,29.5,28.4,00.0,38.3,31.4,20.6,0000.0,0004.00,0009.35,0003.42
2022-06-28 15:11:00,,0833.1,5.00,0.00,29.6,28.5,00.0,38.3,31.5,20.7,0000.0,0004.03,0009.43,0003.42
2022-06-28 15:12:00,,0833.0,5.01,0.00,29.6,28.6,00.0,38.3,31.5,20.9,0000.0,0004.05,0010.41,0003.42
2022-06-28 15:13:00,,0833.0,5.00,0.00,29.6,28.6,00.0,38.4,31.5,21.0,0000.0,0004.09,0011.53,0003.43
2022-06-28 15:14:00,,0832.9,4.99,0.00,29.6,28.7,00.0,38.4,31.6,20.8,0000.0,0004.10,0012.02,0003.44
2022-06-28 15:15:00,,0832.9,5.00,0.00,29.7,28.5,00.0,38.4,31.6,21.0,0000.0,0004.11,0011.66,0003.44
2022-06-28 15:16:00,,0832.8,5.00,0.00,29.6,27.7,00.0,38.3,31.4,20.9,0000.0,0004.17,0011.03,0003.45
2022-06-28 15:17:00,,0832.8,5.00,0.00,29.5,27.3,00.0,38.3,31.2,21.0,0000.0,0004.20,0011.52,0003.45
2022-06-28 15:18:00,,0832.8,5.00,0.00,29.5,27.3,00.0,38.2,31.2,21.1,0000.0,0004.18,0011.84,0003.46
2022-06-28 15:19:00,,0832.8,5.00,0.00,29.4,27.4,00.0,38.2,31.2,21.3,0000.0,0004.17,0011.95,0003.46
2022-06-28 15:20:00,,0832.8,5.00,0.00,29.4,27.5,00.0,38.2,31.2,21.0,0000.0,0004.15,0011.88,0003.46
2022-06-28 15:21:00,,0832.9,5.00,0.00,29.4,27.7,00.0,38.2,31.2,20.6,0000.0,0004.10,0011.69,0003.47
2022-06-28 15:22:00,,0832.8,5.00,0.00,29.4,27.8,00.0,38.2,31.2,20.3,0000.0,0004.09,0011.45,0003.48
2022-06-28 15:23:00,,0832.8,5.00,0.00,29.4,28.0,00.0,38.2,31.3,20.9,0000.0,0004.06,0011.63,0003.47
2022-06-28 15:24:00,,0832.8,5.00,0.00,29.4,28.1,00.0,38.2,31.3,20.8,0000.0,0004.04,0011.75,0003.47
2022-06-28 15:25:00,,0832.9,5.00,0.00,29.4,28.2,00.0,38.2,31.3,20.5,0000.0,0004.04,0011.86,0003.47
2022-06-28 15:26:00,,0832.8,5.00,0.00,29.5,28.3,00.0,38.2,31.4,20.5,0000.0,0004.03,0011.66,0003.46
2022-06-28 15:27:00,,0832.8,4.99,0.00,29.5,28.4,00.0,38.3,31.4,21.3,0000.0,0003.96,0011.46,0003.47
2022-06-28 15:28:00,,0832.8,5.00,0.00,29.5,28.5,00.0,38.3,31.5,21.1,0000.0,0003.98,0011.13,0003.48
2022-06-28 15:29:00,,0832.8,5.00,0.00,29.6,28.6,00.0,38.3,31.5,21.0,0000.0,0004.00,0011.25,0003.48
2022-06-28 15:30:00,,0832.8,5.00,0.00,29.6,28.3,00.0,38.3,31.4,20.6,0000.0,0003.99,0011.64,0003.49
2022-06-28 15:31:00,,0832.8,5.00,0.00,29.5,27.6,00.0,38.2,31.3,20.6,0000.0,0004.02,0012.67,0003.50
2022-06-28 15:32:00,,0832.8,4.99,0.00,29.4,27.2,00.0,38.2,31.1,20.8,0000.0,0004.06,0013.08,0003.51
2022-06-28 15:33:00,,0832.8,4.99,0.00,29.4,27.2,00.0,38.2,31.1,21.6,0000.0,0004.04,0013.24,0003.50
2022-06-28 15:34:00,,0832.7,5.00,0.00,29.3,27.3,00.0,38.2,31.1,21.8,0000.0,0004.04,0013.34,0003.51
2022-06-28 15:35:00,,0832.7,5.00,0.00,29.3,27.5,00.0,38.1,31.1,21.8,0000.0,0004.06,0012.75,0003.51
2022-06-28 15:36:00,,0832.7,5.01,0.00,29.3,27.6,00.0,38.1,31.2,21.5,0000.0,0004.11,0012.24,0003.50
2022-06-28 15:37:00,,0832.7,5.01,0.00,29.3,27.8,00.0,38.1,31.2,21.0,0000.0,0004.11,0012.29,0003.50
2022-06-28 15:38:00,,0832.7,5.00,0.00,29.3,27.9,00.0,38.1,31.2,20.8,0000.0,0004.12,0012.31,0003.49
2022-06-28 15:39:00,,0832.8,5.00,0.00,29.4,28.1,00.0,38.2,31.3,21.4,0000.0,0004.10,0012.47,0003.47
2022-06-28 15:40:00,,0832.8,5.00,0.00,29.4,28.2,00.0,38.2,31.3,21.4,0000.0,0004.11,0012.14,0003.47
2022-06-28 15:41:00,,0832.7,4.99,0.00,29.4,28.3,00.0,38.2,31.3,21.2,0000.0,0004.11,0011.87,0003.47
2022-06-28 15:42:00,,0832.8,5.00,0.00,29.4,28.4,00.0,38.2,31.4,22.3,0000.0,0004.11,0010.54,0003.47
2022-06-28 15:43:00,,0832.8,5.01,0.00,29.5,28.5,00.0,38.2,31.4,22.5,0000.0,0004.11,0011.30,0003.47
2022-06-28 15:44:00,,0832.7,5.00,0.00,29.5,28.6,00.0,38.2,31.4,22.6,0000.0,0004.15,0011.46,0003.48
2022-06-28 15:45:00,,0832.7,5.00,0.00,29.5,28.3,00.0,38.2,31.4,22.8,0000.0,0004.18,0010.93,0003.49
2022-06-28 15:46:00,,0832.8,5.01,0.00,29.5,27.5,00.0,38.1,31.2,21.9,0000.0,0004.17,0010.05,0003.49
2022-06-28 15:47:00,,0832.8,4.99,0.00,29.4,27.2,00.0,38.1,31.1,20.2,0000.0,0004.12,0009.62,0003.49
2022-06-28 15:48:00,,0832.8,4.99,0.00,29.3,27.3,00.0,38.1,31.1,21.3,0000.0,0004.10,0010.02,0003.49
2022-06-28 15:49:00,,0832.8,5.00,0.00,29.3,27.4,00.0,38.1,31.1,21.7,0000.0,0004.11,0011.31,0003.50
2022-06-28 15:50:00,,0832.8,5.00,0.00,29.3,27.5,00.0,38.1,31.1,21.3,0000.0,0004.08,0011.74,0003.51
2022-06-28 15:51:00,,0832.8,5.01,0.00,29.3,27.7,00.0,38.1,31.2,22.2,0000.0,0004.08,0012.16,0003.50
2022-06-28 15:52:00,,0832.8,5.00,0.00,29.3,27.8,00.0,38.1,31.2,22.3,0000.0,0004.10,0012.38,0003.49
2022-06-28 15:53:00,,0832.7,5.00,0.00,29.3,28.0,00.0,38.1,31.2,20.6,0000.0,0004.06,0012.48,0003.47
2022-06-28 15:54:00,,0832.8,5.00,0.00,29.3,28.1,00.0,38.1,31.3,20.2,0000.0,0004.01,0011.33,0003.45
2022-06-28 15:55:00,,0832.8,5.00,0.00,29.4,28.2,00.0,38.1,31.3,19.9,0000.0,0003.95,0010.93,0003.43
2022-06-28 15:56:00,,0832.8,4.99,0.00,29.4,28.3,00.0,38.1,31.3,19.5,0000.0,0003.92,0010.96,0003.41
2022-06-28 15:57:00,,0832.8,5.00,0.00,29.4,28.4,00.0,38.2,31.4,19.8,0000.0,0003.91,0011.08,0003.39
2022-06-28 15:58:00,,0832.8,5.00,0.00,29.5,28.5,00.0,38.2,31.4,20.1,0000.0,0003.87,0011.73,0003.39
2022-06-28 15:59:00,,0832.7,5.00,0.00,29.5,28.1,00.0,38.1,31.3,21.1,0000.0,0003.90,0011.21,0003.39
